Regional Weather Roundup
Issued by NWS

Home | Current Version | Previous Version | Text Only | Print | Product List | Glossary On
Versions: 1 2 3 4 5 6 7 8 9 10 11 12 13 14 15 16 17 18 19 20 21 22 23 24 25 26 27 28 29 30 31 32 33 34 35 36 37 38 39 40 41 42 43 44 45 46 47 48 49 50
000
ASUS42 KKEY 310110
RWRKEY

FLORIDA REGIONAL WEATHER ROUNDUP FOR THE FLORIDA KEYS
NATIONAL WEATHER SERVICE KEY WEST FLORIDA
800 PM EST FRI JAN 30 2015

...SOUTH FLORIDA AND THE KEYS...

CITY           SKY/WX    TMP DP  RH WIND       PRES   REMARKS
FORT MYERS     MOCLDY    63  58  83 NW6       30.16R
SW REGIONAL AP MOCLDY    63  56  78 NW3       30.16S
NAPLES         PTCLDY    64  59  83 NW5       30.17R
MIAMI          MOCLDY    70  47  43 CALM      30.15R
WEST KENDALL   MOCLDY    65  52  62 SW3       30.16R
HOMESTEAD      MOCLDY    65  55  72 W6        30.15R
MARATHON       PTCLDY    66  58  75 N8        30.16R
BOCA CHICA NAS PTCLDY    65  56  72 N14       30.16S
KEY WEST INTL  CLEAR     66  57  72 N10       30.17R

...INTERNATIONAL WEATHER...

CITY           SKY/WX    TMP DP  RH WIND       PRES   REMARKS
NASSAU BAHAMAS PTCLDY    68  55  64 N6        30.16R
CANCUN MEXICO  PTCLDY    72  63  73 NE3       30.13R
COZUMEL MEXICO PTCLDY    68  63  83 E7        30.12S

ADJACENT COASTAL WATERS...

STATION/POSITION TIME  SKY/WX   TEMP    WIND        PRES    WAVE
                                AIR SEA DIR/SP/G            HT/PER
                 (UTC)          (F)     (DEG/KT/KT) (MB)    (FT/S)
PULASKI SHOAL LI NOT AVBL
SAND KEY         NOT AVBL
SOMBRERO KEY     NOT AVBL
LONG KEY         NOT AVBL
MOLASSES REEF    NOT AVBL
FOWEY ROCKS      NOT AVBL
Buoy 42080       NOT AVBL

$$


USA.gov is the U.S. government's official web portal to all federal, state and local government web resources and services.